Wind_Speed
11 11 11 12 13 13 14 14 13 13 12 11 11 11 11 12 12 12 12 12 12 12 12 12 12 10 10 11 12 14 15 16 21 21 20 12 12 15 11 10 9 10 10
10 13 12 12 14 15 15 16 14 14 13 12 11 11 11 11 11 11 12 12 12 12 13 12 12 11 10 12 15 18 21 25 26 18 10 9 12 14 14 13 11 12 13
8 10 12 12 13 15 15 16 15 14 14 13 13 13 13 12 12 12 12 13 13 13 12 11 11 11 13 16 21 22 17 15 13 12 9 9 9 12 13 12 13 14 16
9 9 10 11 12 13 14 15 15 15 15 14 15 14 13 13 12 13 13 14 13 12 12 13 14 15 17 21 13 12 11 10 10 11 12 11 10 12 13 13 15 15 15
12 11 10 11 11 12 13 15 15 15 14 15 15 14 13 12 13 14 13 13 13 14 15 17 19 19 20 13 11 9 9 8 7 6 6 7 9 10 10 10 11 12 13
14 14 13 13 12 12 14 14 15 14 14 14 14 14 12 12 12 12 13 15 16 17 20 21 22 20 13 12 11 11 11 10 9 8 7 7 7 8 9 10 12 14 16
19 16 17 15 15 15 15 14 14 13 12 13 13 15 15 15 15 16 18 19 20 21 21 20 15 13 12 12 12 13 11 10 9 8 7 8 9 11 11 13 15 18 20
22 20 19 18 18 16 16 15 16 16 15 16 17 19 19 19 19 19 18 18 17 16 14 13 13 13 12 12 14 11 8 8 9 10 10 11 13 14 15 16 18 21 24
24 23 22 22 21 20 19 18 18 19 20 18 18 18 18 18 20 19 19 18 16 16 14 14 14 14 14 15 11 9 10 11 11 11 12 14 16 17 18 19 22 25 27
26 25 25 24 24 24 23 22 21 21 20 18 18 18 18 20 20 18 16 16 16 15 15 14 15 15 14 13 13 13 13 14 14 16 17 18 20 21 23 24 27 28 31
29 27 26 26 26 27 26 25 25 23 22 20 19 18 17 17 17 17 17 17 16 16 16 16 16 14 14 15 15 16 17 18 19 20 22 23 25 26 28 28 30 32 34
32 30 29 28 28 27 28 27 27 25 24 23 21 20 19 18 17 17 18 17 16 17 18 17 16 16 17 19 20 21 21 22 23 24 26 27 29 31 32 33 34 35 37
35 32 33 31 30 29 29 28 28 27 27 26 24 23 22 20 19 18 18 18 19 20 21 19 20 20 20 23 24 25 27 28 28 30 31 32 34 35 36 38 38 40 40
37 34 34 34 33 32 31 30 28 26 27 28 27 26 25 23 21 21 19 20 21 23 22 20 22 24 25 27 30 31 32 33 33 34 36 37 38 40 42 42 42 43 44
39 39 37 36 36 35 33 33 31 29 28 29 28 28 28 26 25 24 23 23 22 25 25 25 26 27 29 31 33 34 35 36 37 38 39 40 42 44 45 46 46 47 49
42 39 40 38 39 38 37 36 35 35 33 31 29 30 31 30 29 28 27 27 28 28 29 29 30 32 34 35 35 36 37 38 40 41 42 43 45 47 48 49 51 52 53
43 48 42 41 41 39 39 38 37 37 38 36 33 31 33 32 32 31 32 32 32 31 32 33 33 35 37 38 38 38 39 40 41 42 44 46 47 50 51 52 53 56 59
48 44 46 41 39 39 38 39 39 38 38 39 37 34 32 33 33 33 35 35 33 34 35 35 34 37 39 40 40 40 40 42 43 44 46 48 49 52 54 56 58 61 61
48 49 48 46 42 40 40 37 38 37 38 37 38 36 35 35 36 36 37 34 34 36 37 35 36 39 40 40 39 40 41 42 43 45 48 50 51 54 57 60 64 64 59
51 50 50 51 53 50 48 42 38 37 37 35 36 38 39 37 38 37 37 37 36 39 39 39 40 40 40 41 41 43 43 45 46 47 50 53 56 57 60 64 63 58 54
49 49 51 53 52 46 42 46 42 37 37 39 38 39 40 40 41 39 39 39 39 40 41 41 42 43 43 43 44 46 47 48 50 53 56 56 58 62 64 60 57 56 59
52 50 48 51 54 47 43 44 46 42 40 39 41 42 42 42 43 42 40 41 41 41 42 43 44 45 46 45 46 47 49 51 52 57 53 57 63 62 61 60 60 62 65
54 54 51 49 50 51 47 45 47 45 45 43 41 44 46 46 45 44 43 44 44 44 44 45 46 47 49 50 50 50 51 53 56 54 58 62 60 61 61 59 62 65 63
54 55 53 53 50 51 49 48 48 47 44 44 44 46 45 53 49 48 45 45 45 45 46 48 50 50 51 49 52 53 53 55 56 59 62 60 59 62 59 58 58 58 58
57 57 54 54 53 52 50 50 48 48 49 49 47 44 48 40 41 46 45 44 47 51 50 53 54 57 54 52 53 53 54 57 56 62 62 60 58 55 53 52 54 57 57
62 57 57 53 54 53 51 51 50 47 49 50 49 49 46 46 43 45 48 48 50 52 54 55 59 56 51 53 56 57 61 65 62 64 59 57 52 51 53 56 55 53 56
Wind_Direction
215 214 219 216 207 207 207 207 211 218 221 222 228 230 228 228 227 229 230 233 235 239 241 246 246 246 247 254 266 271 275 283 296 298 297 278 258 268 290 292 286 281 281
219 216 218 221 213 212 216 212 213 219 228 231 235 238 239 237 240 243 244 245 247 248 248 248 244 247 253 263 270 275 279 282 288 291 291 276 262 267 276 284 289 291 293
222 218 223 217 214 216 218 216 215 219 228 233 236 239 240 241 240 241 245 248 250 249 248 247 249 251 260 273 287 288 287 288 285 279 276 271 260 264 271 276 281 286 287
223 221 216 216 212 206 207 213 218 225 230 234 235 238 239 241 244 246 247 246 246 248 250 253 256 262 275 293 286 295 294 294 285 274 272 269 266 267 273 282 285 290 293
220 219 215 214 210 208 204 210 222 231 235 241 241 238 241 244 244 244 244 243 247 250 257 260 265 275 290 278 281 289 293 293 294 290 282 274 270 272 279 280 283 289 296
220 219 216 216 213 212 217 221 226 236 242 244 242 239 240 242 244 243 248 250 253 256 261 268 275 280 271 269 274 279 275 279 285 284 286 282 284 287 292 300 308 307 302
225 219 223 220 221 220 221 229 229 234 239 245 246 247 246 247 249 253 254 257 262 268 272 270 264 261 263 269 275 275 282 282 280 283 285 295 296 300 301 301 305 300 301
227 224 224 224 225 228 225 227 236 241 246 253 259 258 256 253 254 260 261 265 266 263 260 257 260 262 269 277 273 276 272 274 283 292 297 297 297 296 296 298 296 296 298
230 228 231 229 226 227 231 233 239 247 252 254 255 254 253 251 253 257 262 261 258 263 259 262 262 270 276 271 265 262 270 279 288 291 291 289 287 289 291 294 296 299 301
230 230 232 234 235 232 234 239 242 248 252 254 253 249 248 250 254 253 251 252 260 259 262 266 271 274 267 256 262 272 281 284 287 287 285 286 288 291 294 296 297 299 301
236 230 230 234 236 236 236 240 244 246 248 250 250 247 248 249 249 245 244 249 252 257 260 265 264 261 260 268 276 278 280 283 286 289 291 293 295 295 295 295 297 299 300
237 235 231 230 233 237 233 236 243 245 247 246 244 244 246 247 250 249 247 248 253 257 260 260 259 260 266 273 277 279 282 284 288 290 292 293 295 295 296 297 297 298 299
240 239 238 235 232 232 239 234 237 244 248 248 242 242 245 249 249 247 248 249 252 257 258 258 262 263 268 273 278 281 283 286 289 292 295 295 296 297 296 296 297 298 301
240 243 244 243 242 239 238 242 239 237 245 247 248 246 245 248 252 253 253 253 256 262 264 264 265 270 273 276 279 282 286 288 292 292 292 293 296 295 295 296 297 300 301
243 242 244 245 246 245 245 245 244 243 240 244 247 249 249 252 253 257 259 262 262 264 267 268 268 270 273 276 279 282 286 288 289 290 292 294 293 294 295 295 297 300 304
238 242 241 243 246 247 247 248 248 248 244 245 242 248 250 250 252 254 258 261 262 265 269 271 273 274 275 276 278 282 284 287 288 291 292 291 292 293 295 297 301 302 302
245 236 240 242 242 246 246 248 249 250 252 250 248 247 249 250 252 253 254 255 259 264 267 270 273 274 276 278 280 282 284 286 287 288 289 290 292 292 295 298 300 299 299
240 244 236 242 242 241 243 245 244 246 250 252 253 251 254 255 253 254 255 258 262 263 264 269 274 276 278 279 281 284 285 286 288 290 290 290 292 294 297 299 298 299 301
236 240 238 237 241 242 242 246 247 248 251 253 254 254 254 256 257 258 261 264 266 267 269 273 274 275 277 280 282 283 286 288 290 290 291 291 293 295 298 297 298 298 296
233 235 238 237 240 244 247 247 245 248 249 253 255 253 252 254 256 259 264 266 268 272 274 275 276 278 281 283 285 287 289 290 291 292 293 293 295 296 296 294 296 295 292
241 236 234 237 239 241 250 238 242 246 247 245 246 248 252 254 257 259 262 266 268 270 274 276 278 280 282 285 286 289 290 292 292 292 290 292 295 297 297 295 293 293 291
244 245 240 238 241 240 240 242 244 241 246 247 247 248 249 253 259 262 264 266 268 271 273 276 279 281 282 283 284 286 288 291 291 291 289 290 294 295 297 298 294 292 292
241 242 244 242 239 241 236 239 244 249 248 247 253 253 249 248 251 256 260 263 268 272 274 276 278 280 281 283 285 287 289 289 293 289 294 296 293 293 295 294 289 291 290
234 239 242 246 244 239 238 238 242 247 245 257 259 262 272 252 249 253 259 264 270 272 274 276 275 276 277 281 285 288 288 290 291 291 298 293 288 290 288 286 285 285 286
233 233 235 239 243 244 242 236 238 244 250 253 258 264 268 264 266 258 258 263 266 269 270 273 277 278 278 283 286 287 294 296 285 289 286 286 286 283 278 277 281 282 293
231 232 233 233 237 240 241 240 238 239 248 254 257 256 262 269 275 285 265 265 270 274 276 276 283 283 286 291 291 290 290 286 281 282 283 281 275 275 277 281 290 298 301
Height
5832 5833 5834 5835 5836 5837 5838 5839 5841 5842 5843 5843 5844 5845 5845 5845 5845 5846 5846 5846 5846 5847 5847 5847 5847 5847 5847 5846 5846 5846 5844 5843 5842 5841 5840 5839 5839 5839 5839 5838 5837 5837 5836
5831 5832 5832 5833 5834 5836 5837 5838 5839 5841 5842 5843 5843 5844 5844 5844 5845 5845 5845 5845 5846 5846 5845 5845 5846 5846 5846 5846 5845 5844 5843 5841 5840 5839 5838 5837 5837 5837 5837 5836 5835 5835 5834
5829 5830 5831 5831 5832 5834 5835 5837 5838 5839 5841 5841 5842 5843 5843 5843 5844 5843 5843 5843 5844 5844 5844 5844 5845 5845 5845 5844 5843 5842 5840 5838 5837 5836 5836 5835 5835 5835 5834 5834 5833 5832 5832
5828 5829 5829 5830 5831 5832 5834 5835 5836 5837 5838 5839 5840 5840 5841 5841 5841 5842 5842 5841 5841 5842 5842 5842 5842 5843 5843 5842 5841 5840 5838 5837 5835 5835 5835 5834 5833 5833 5832 5832 5831 5830 5829
5826 5827 5828 5829 5830 5831 5831 5833 5835 5836 5837 5837 5838 5838 5838 5839 5839 5839 5839 5839 5839 5840 5840 5840 5840 5840 5840 5840 5839 5838 5837 5835 5834 5833 5832 5831 5831 5831 5830 5829 5828 5827 5825
5823 5825 5826 5827 5828 5829 5831 5831 5832 5833 5834 5835 5835 5836 5836 5837 5837 5837 5837 5837 5838 5838 5838 5837 5837 5837 5837 5837 5836 5835 5834 5833 5832 5831 5830 5830 5829 5829 5828 5828 5827 5826 5824
5821 5822 5823 5824 5825 5827 5828 5830 5830 5831 5832 5833 5834 5834 5834 5835 5835 5834 5834 5835 5835 5835 5835 5834 5833 5834 5834 5834 5834 5832 5832 5831 5830 5830 5829 5829 5828 5827 5827 5826 5825 5822 5820
5818 5819 5820 5822 5823 5824 5825 5827 5828 5829 5829 5830 5831 5831 5832 5832 5832 5832 5832 5832 5832 5831 5831 5831 5831 5832 5832 5832 5830 5831 5830 5829 5829 5828 5827 5826 5825 5824 5823 5822 5820 5817 5815
5815 5816 5817 5819 5820 5821 5823 5824 5825 5826 5826 5826 5827 5827 5828 5829 5829 5829 5829 5829 5830 5829 5829 5829 5829 5829 5830 5828 5828 5827 5827 5826 5826 5825 5824 5822 5821 5820 5819 5818 5815 5812 5810
5810 5812 5813 5814 5816 5818 5819 5820 5821 5822 5823 5823 5823 5824 5825 5825 5825 5826 5826 5827 5827 5827 5827 5826 5826 5826 5826 5825 5825 5824 5824 5823 5823 5822 5820 5819 5817 5816 5815 5813 5810 5808 5804
5804 5806 5808 5810 5812 5813 5815 5817 5817 5818 5818 5819 5820 5821 5821 5821 5822 5822 5823 5823 5824 5824 5823 5823 5823 5823 5822 5822 5822 5821 5821 5820 5819 5817 5816 5814 5812 5810 5809 5807 5804 5802 5799
5799 5801 5802 5804 5807 5808 5809 5811 5813 5814 5814 5815 5816 5816 5817 5817 5818 5819 5819 5820 5820 5820 5820 5819 5820 5820 5819 5817 5817 5817 5816 5815 5814 5813 5811 5809 5806 5804 5802 5799 5796 5794 5791
5795 5797 5798 5800 5800 5802 5804 5805 5807 5810 5810 5811 5812 5812 5813 5814 5815 5815 5815 5815 5816 5815 5815 5816 5816 5816 5816 5814 5812 5812 5811 5810 5809 5807 5805 5802 5799 5797 5794 5791 5788 5785 5782
5789 5791 5794 5796 5797 5798 5799 5801 5802 5804 5805 5807 5808 5808 5808 5809 5811 5812 5812 5812 5812 5811 5811 5813 5811 5810 5810 5809 5807 5806 5805 5804 5802 5799 5796 5794 5792 5788 5785 5782 5779 5776 5773
5782 5784 5786 5789 5790 5793 5794 5796 5797 5799 5799 5801 5803 5804 5804 5805 5806 5807 5807 5808 5808 5806 5806 5807 5806 5806 5805 5803 5801 5800 5799 5797 5794 5791 5789 5786 5783 5779 5775 5772 5769 5766 5762
5772 5775 5777 5780 5783 5785 5788 5789 5791 5792 5793 5794 5796 5798 5798 5799 5800 5801 5801 5801 5802 5801 5800 5800 5800 5799 5797 5796 5796 5794 5792 5790 5787 5784 5781 5777 5774 5770 5766 5762 5758 5754 5751
5761 5764 5767 5770 5774 5777 5780 5782 5784 5785 5787 5788 5790 5792 5792 5792 5794 5794 5793 5793 5794 5794 5793 5793 5793 5791 5790 5789 5788 5787 5785 5782 5779 5776 5772 5767 5764 5759 5756 5752 5748 5744 5741
5748 5753 5759 5761 5765 5769 5771 5773 5775 5777 5780 5781 5783 5786 5787 5787 5787 5787 5786 5787 5788 5787 5786 5786 5785 5783 5782 5781 5780 5778 5776 5773 5770 5766 5762 5758 5754 5750 5745 5741 5736 5733 5729
5738 5741 5746 5752 5755 5759 5763 5765 5767 5769 5771 5774 5776 5778 5780 5780 5780 5781 5781 5782 5781 5779 5779 5779 5777 5775 5773 5772 5771 5770 5767 5764 5760 5756 5752 5748 5744 5740 5736 5730 5725 5721 5718
5727 5731 5735 5740 5744 5749 5753 5756 5759 5762 5764 5767 5769 5769 5769 5771 5772 5773 5773 5774 5774 5772 5772 5771 5770 5768 5766 5765 5762 5760 5757 5754 5750 5746 5742 5738 5734 5729 5725 5719 5714 5710 5706
5717 5720 5724 5727 5733 5737 5740 5745 5750 5753 5755 5757 5759 5760 5762 5762 5764 5765 5766 5766 5765 5765 5763 5762 5761 5759 5757 5755 5753 5750 5747 5743 5740 5736 5732 5728 5722 5717 5712 5706 5702 5698 5694
5706 5711 5714 5718 5722 5728 5732 5735 5738 5743 5746 5748 5750 5752 5754 5755 5755 5756 5757 5757 5756 5755 5755 5754 5752 5750 5748 5745 5743 5740 5737 5734 5728 5725 5721 5716 5711 5705 5701 5696 5692 5687 5683
5694 5698 5704 5707 5712 5717 5722 5726 5729 5733 5737 5740 5742 5744 5745 5746 5746 5746 5746 5746 5746 5746 5746 5744 5742 5740 5738 5734 5731 5729 5725 5722 5717 5713 5709 5702 5696 5692 5688 5683 5678 5675 5671
5681 5685 5692 5697 5701 5705 5711 5717 5721 5723 5727 5730 5731 5733 5735 5735 5737 5737 5738 5737 5737 5736 5735 5734 5731 5729 5726 5723 5721 5717 5714 5710 5706 5701 5695 5688 5683 5679 5675 5671 5667 5662 5657
5668 5672 5678 5685 5690 5694 5700 5706 5711 5714 5717 5720 5723 5725 5726 5728 5729 5728 5727 5727 5726 5726 5724 5722 5720 5717 5715 5712 5710 5706 5702 5697 5693 5689 5682 5677 5672 5667 5663 5658 5654 5650 5643
5653 5660 5665 5672 5679 5682 5688 5694 5699 5706 5708 5710 5713 5716 5717 5718 5719 5717 5717 5717 5717 5716 5713 5711 5708 5707 5705 5702 5699 5696 5691 5687 5681 5676 5670 5665 5660 5656 5652 5646 5639 5634 5630